PBO Station Position Time Series. Reference Frame : NAM14
Format Version,1.1.1
4-character ID,TPW2
Station name,TPW2_PNGA_OR2000
Begin Date, 2000-03-31
End Date, 2023-06-26
Release Date, 2023-06-27
Reference position, 46.2073725579 North Latitude, -123.7683640127 East Longitude, -14.94622 meters elevation,
Date, North (mm), East (mm), Vertical (mm), North Std. Deviation (mm), East Std. Deviation (mm),              Vertical Std. Deviation (mm), Quality,
2000-03-31,0.00, 0.00, 0.00, 2.51, 1.90, 8.89, repro,
2000-04-01,1.24, 1.27, -1.85, 2.53, 1.89, 8.69, repro,
2000-04-02,0.68, 1.35, -1.20, 2.51, 1.89, 8.74, repro,
2000-04-03,0.57, 0.84, -0.83, 2.53, 1.91, 8.85, repro,
2000-04-04,1.15, 1.46, 2.66, 2.45, 1.84, 8.66, repro,
2000-04-05,0.60, 3.91, 6.65, 2.44, 1.85, 8.62, repro,
2000-04-06,2.34, 3.85, 3.35, 2.63, 1.95, 8.93, repro,
2000-04-07,0.88, 2.17, 1.42, 2.56, 1.90, 8.94, repro,
2000-04-08,0.63, 0.06, -1.93, 2.50, 1.94, 8.92, repro,
2000-04-09,1.36, 0.76, 5.45, 2.46, 1.88, 8.76, repro,
2000-04-10,0.70, 1.42, 6.49, 2.47, 1.92, 8.94, repro,
2000-04-11,-0.77, 1.93, -3.00, 2.38, 1.80, 8.29, repro,
2000-04-12,1.74, 1.71, -1.67, 2.59, 1.90, 8.88, repro,
2000-04-13,0.83, 2.77, -2.76, 2.61, 1.88, 8.97, repro,
2000-04-14,-0.15, 2.82, 6.72, 2.51, 1.87, 8.58, repro,
2000-04-15,-0.99, 1.14, 7.34, 2.43, 1.81, 8.45, repro,
2000-04-16,-1.30, 0.72, 9.50, 2.42, 1.83, 8.52, repro,
2000-04-17,0.49, 1.41, 9.80, 2.43, 1.82, 8.43, repro,
2000-04-18,1.16, 1.51, 6.32, 2.42, 1.84, 8.55, repro,
2000-04-19,1.55, 2.64, 7.29, 2.57, 1.96, 9.23, repro,
2000-04-20,-1.57, 1.90, 5.59, 2.58, 1.89, 8.97, repro,
2000-04-21,-0.66, 0.61, 6.65, 2.47, 1.84, 8.62, repro,
2000-04-22,1.31, 2.52, 5.30, 2.45, 1.84, 8.57, repro,
2000-04-23,1.01, 2.76, 6.98, 2.41, 1.82, 8.44, repro,
2000-04-24,1.71, 3.39, 1.64, 2.49, 1.86, 8.76, repro,
2000-04-25,-0.99, 2.95, 0.14, 2.59, 2.05, 9.38, repro,
2000-04-26,2.18, 3.50, 0.10, 2.42, 1.82, 8.47, repro,
2000-04-27,1.63, 1.94, 7.29, 2.43, 1.85, 8.61, repro,
2000-04-28,2.40, 4.96, 0.95, 2.43, 1.82, 8.47, repro,
2000-04-29,0.69, 3.56, 1.29, 2.43, 1.90, 8.72, repro,
2000-04-30,0.09, 1.44, 3.26, 2.45, 1.92, 8.88, repro,
2000-05-01,-1.76, 1.85, -1.40, 2.40, 1.83, 8.42, repro,
2000-05-02,-0.07, 2.23, 2.05, 2.54, 1.98, 9.04, repro,
2000-05-03,3.80, 2.81, -0.78, 2.65, 2.14, 9.49, repro,
2000-05-04,1.66, 3.08, 2.05, 2.43, 1.82, 8.54, repro,
2000-05-05,0.37, 3.28, -8.25, 2.41, 1.83, 8.63, repro,
2000-05-06,-1.19, 2.74, 6.24, 2.40, 1.83, 8.39, repro,
2000-05-07,0.09, 1.47, 6.37, 2.46, 1.88, 8.72, repro,
2000-05-08,1.96, 1.94, 4.84, 2.42, 1.81, 8.37, repro,
2000-05-09,2.24, 1.77, 4.71, 2.57, 1.95, 9.13, repro,
2000-05-10,2.11, 4.47, 17.73, 2.44, 1.83, 8.55, repro,
2000-05-11,2.24, 4.12, 1.97, 2.52, 1.94, 9.08, repro,
2000-05-12,0.79, 2.10, 9.94, 2.52, 1.94, 9.06, repro,
2000-05-13,1.23, 1.38, 6.07, 2.44, 1.85, 8.67, repro,
2000-05-14,0.16, 0.25, 3.99, 2.45, 1.82, 8.55, repro,
2000-05-15,1.35, -0.82, 1.78, 2.51, 1.83, 8.73, repro,
2000-05-16,0.27, 1.07, 7.90, 2.49, 1.91, 8.96, repro,
2000-05-17,1.21, 1.52, 9.83, 2.40, 1.83, 8.53, repro,
2000-05-18,-0.34, 2.23, 8.01, 2.44, 1.83, 8.50, repro,
2000-05-19,0.87, 3.15, 0.72, 2.40, 1.84, 8.67, repro,
2000-05-20,0.95, 0.48, 14.06, 2.44, 1.83, 8.57, repro,
2000-05-21,1.13, -0.51, -2.81, 2.44, 1.83, 8.68, repro,
2000-05-22,0.91, 0.91, 5.68, 2.43, 1.82, 8.57, repro,
2000-05-23,0.09, -1.72, 13.00, 2.64, 1.94, 9.15, repro,
2000-05-24,0.53, -0.27, 14.66, 2.53, 1.90, 8.79, repro,
2000-05-25,1.61, 0.79, 13.18, 2.42, 1.87, 8.80, repro,
2000-05-26,-0.83, 0.54, 6.78, 2.42, 1.82, 8.57, repro,
2000-05-27,2.24, 2.34, 6.96, 2.51, 1.92, 8.96, repro,
2000-05-28,0.72, 2.17, 7.00, 2.50, 1.84, 8.63, repro,
2000-05-29,-0.74, 1.55, 9.27, 2.43, 1.86, 8.58, repro,
2000-05-30,2.23, 1.24, -0.83, 2.44, 1.84, 8.37, repro,
2000-05-31,1.27, 1.54, 0.67, 2.29, 1.79, 8.20, repro,
2000-06-01,1.60, 0.95, 3.99, 2.34, 1.84, 8.42, repro,
2000-06-02,0.71, 0.99, 0.61, 2.39, 1.87, 8.46, repro,
2000-06-03,-0.22, -0.70, 2.84, 2.36, 1.84, 8.37, repro,
2000-06-04,-0.64, -0.55, 3.57, 2.32, 1.81, 8.25, repro,
2000-06-05,1.09, -0.78, 6.06, 2.37, 1.86, 8.51, repro,
2000-06-06,-1.15, 1.39, 4.89, 2.33, 1.80, 8.27, repro,
2000-06-07,0.14, 2.50, 0.45, 2.36, 1.82, 8.47, repro,
2000-06-08,-0.23, 1.89, 9.03, 2.35, 1.81, 8.33, repro,
2000-06-09,1.00, 3.70, 1.09, 2.44, 1.85, 8.52, repro,
2000-06-10,0.71, 4.98, 4.79, 2.39, 1.86, 8.47, repro,
2000-06-11,-0.37, 4.58, 1.91, 2.29, 1.81, 8.27, repro,
2000-06-12,0.21, 4.62, 5.46, 2.40, 1.89, 8.59, repro,
2000-06-13,0.19, 4.31, -1.75, 2.35, 1.81, 8.29, repro,
2000-06-14,-1.00, 2.49, 2.97, 2.34, 1.82, 8.28, repro,
2000-06-15,-1.22, 2.69, 11.17, 2.41, 1.90, 8.71, repro,
2000-06-16,-0.46, -0.06, 7.35, 2.33, 1.80, 8.15, repro,
2000-06-17,0.11, -2.81, 6.40, 2.35, 1.83, 8.36, repro,
2000-06-18,0.11, -0.30, 9.38, 2.41, 1.88, 8.56, repro,
2000-06-19,-0.25, 2.30, 5.31, 2.42, 1.82, 8.47, repro,
2000-06-20,-1.11, 0.04, 8.87, 2.43, 1.86, 8.59, repro,
2000-06-21,0.41, 1.21, 15.01, 2.41, 1.88, 8.58, repro,
2000-06-22,1.71, 0.01, 12.56, 2.46, 1.89, 8.75, repro,
2000-06-23,1.49, 1.76, 1.26, 2.45, 1.84, 8.58, repro,
2000-06-24,0.99, 1.31, 5.76, 2.42, 1.84, 8.55, repro,
2000-06-25,1.67, 0.70, -2.39, 2.38, 1.83, 8.35, repro,
2000-06-26,-1.02, -1.89, -2.37, 2.48, 1.87, 8.65, repro,
2000-06-27,0.48, -1.48, 0.69, 2.55, 1.91, 9.01, repro,
2000-06-28,-0.58, -0.63, 9.03, 2.53, 1.90, 8.96, repro,
2000-06-29,1.50, 1.00, 7.94, 2.38, 1.84, 8.40, repro,
2000-06-30,-2.19, 1.18, 10.88, 2.55, 1.86, 8.59, repro,
2000-07-01,3.38, 0.87, 3.48, 2.42, 1.83, 8.39, repro,
2000-07-02,1.05, 1.42, 4.79, 2.51, 1.84, 8.54, repro,
2000-07-03,-0.67, 0.73, 11.58, 2.52, 1.88, 8.80, repro,
2000-07-04,1.27, 4.09, 3.68, 2.46, 1.87, 8.66, repro,
2000-07-05,0.26, 0.48, 3.52, 2.42, 1.84, 8.47, repro,
2000-07-06,0.78, 0.42, 5.18, 2.42, 1.86, 8.46, repro,
2000-07-07,0.30, -0.34, 6.15, 2.48, 1.87, 8.58, repro,
2000-07-08,0.27, 0.20, 11.46, 2.42, 1.86, 8.53, repro,
2000-07-09,0.57, 1.32, 5.73, 2.51, 1.88, 8.63, repro,
2000-07-10,0.07, 3.18, 9.03, 2.48, 1.86, 8.61, repro,
2000-07-11,0.32, 2.90, 8.90, 2.41, 1.87, 8.44, repro,
2000-07-12,-0.01, 1.23, 4.75, 2.39, 1.83, 8.33, repro,
2000-07-13,-0.51, -0.42, 9.14, 2.41, 1.82, 8.34, repro,
2000-07-14,-0.10, 1.75, 11.86, 2.47, 1.85, 8.45, repro,
2000-07-15,0.06, 2.15, -1.45, 2.52, 1.89, 8.59, repro,
2000-07-16,-0.75, 0.35, 8.12, 2.42, 1.85, 8.42, repro,
2000-07-17,-0.08, 1.19, 9.66, 2.44, 1.86, 8.53, repro,
2000-07-18,2.08, 2.95, 3.43, 2.42, 1.86, 8.43, repro,
2000-07-19,-1.23, 2.29, 5.72, 2.59, 1.95, 9.04, repro,
2000-07-20,1.76, 1.98, 9.49, 2.44, 1.85, 8.42, repro,
2000-07-21,0.67, 2.21, 12.74, 2.44, 1.83, 8.39, repro,
2000-07-22,2.24, 5.03, -0.49, 2.61, 1.92, 9.03, repro,
2000-07-23,0.06, 1.57, 8.35, 2.49, 1.82, 8.46, repro,
2000-07-24,0.87, 0.08, 10.73, 2.46, 1.86, 8.50, repro,
2000-07-25,0.25, 2.41, 6.93, 2.50, 1.86, 8.53, repro,
2000-07-26,1.95, 3.00, 7.57, 2.53, 1.86, 8.63, repro,
2000-07-27,0.89, 3.15, 19.55, 2.57, 1.86, 8.69, repro,
2000-07-28,-1.51, 1.29, 12.88, 2.62, 1.95, 9.03, repro,
2000-07-29,-1.11, 0.30, 17.21, 2.67, 1.90, 9.12, repro,
2000-07-30,1.94, -0.57, 14.50, 2.54, 1.88, 8.87, repro,
2000-07-31,1.47, 1.53, 13.58, 2.52, 1.83, 8.70, repro,
2000-08-01,2.34, 3.65, 7.30, 2.70, 2.04, 9.77, repro,
2000-08-02,1.78, 2.45, -4.78, 2.62, 1.95, 9.27, repro,
2000-08-03,0.02, 1.19, 9.07, 2.55, 1.94, 9.17, repro,
2000-08-04,2.93, 2.20, 12.89, 2.63, 1.97, 9.39, repro,
2000-08-05,2.51, 3.42, 8.26, 2.53, 1.94, 9.10, repro,
2000-08-06,3.25, 3.83, 12.34, 2.69, 1.95, 9.39, repro,
2000-08-07,3.16, 3.51, 20.45, 2.66, 1.93, 9.15, repro,
2000-08-08,-0.67, 3.45, 22.08, 2.43, 1.81, 8.50, repro,
2000-08-09,2.48, 3.80, 20.69, 2.65, 1.96, 9.44, repro,
2000-08-10,3.30, 4.18, 10.92, 2.88, 2.12, 10.16, repro,
2000-08-11,5.78, 5.79, 6.05, 2.64, 2.00, 9.29, repro,
2000-08-12,5.72, 3.50, 2.24, 2.73, 2.03, 9.68, repro,
2000-08-13,3.06, 2.46, 11.14, 2.62, 1.85, 8.75, repro,
2000-08-14,2.66, 3.30, 16.22, 2.58, 1.86, 8.95, repro,
2000-08-15,0.91, 3.89, 16.86, 2.68, 2.00, 9.12, repro,
2000-08-16,3.66, 4.93, 9.82, 2.61, 1.91, 8.92, repro,
2000-08-17,4.00, 2.61, 7.75, 2.59, 1.86, 8.73, repro,
2000-08-18,0.99, 2.11, -3.03, 2.73, 1.93, 9.15, repro,
2000-08-19,4.14, 3.14, 15.68, 2.56, 1.86, 8.67, repro,
2000-08-20,3.99, 2.41, 14.43, 2.68, 1.95, 9.26, repro,
2000-08-21,1.90, 2.59, 11.18, 2.54, 1.88, 8.72, repro,
2000-08-22,0.91, 1.43, 15.48, 2.59, 1.88, 8.77, repro,
2000-08-23,1.69, 2.35, 12.86, 2.52, 1.86, 8.73, repro,
2000-08-24,2.95, 4.00, 9.32, 2.75, 1.96, 9.29, repro,
2000-08-25,1.74, 3.53, 10.43, 2.73, 1.96, 9.25, repro,
2000-08-26,3.20, 1.14, 13.14, 2.66, 1.91, 9.03, repro,
2000-08-27,1.43, 3.14, 20.84, 2.56, 1.94, 9.06, repro,
2000-08-28,3.39, 2.99, 10.41, 2.60, 1.90, 8.94, repro,
2000-08-29,2.40, 2.39, 2.97, 2.50, 1.89, 8.82, repro,
2000-08-30,4.99, 2.12, 8.58, 2.66, 1.95, 9.09, repro,
2000-08-31,0.71, 3.77, 22.04, 2.63, 1.95, 8.94, repro,
2000-09-01,2.20, 4.75, 17.64, 2.60, 1.89, 8.80, repro,
2000-09-02,3.41, 5.01, 11.71, 2.69, 1.91, 8.85, repro,
2000-09-03,2.74, 5.24, 5.64, 2.41, 1.78, 8.16, repro,
2000-09-04,3.65, 2.82, 5.05, 2.59, 1.91, 8.74, repro,
2000-09-05,2.42, 4.83, 7.22, 2.77, 1.98, 8.97, repro,
2000-09-06,4.07, 5.16, 17.29, 2.58, 1.88, 8.40, repro,
2000-09-07,3.88, 4.25, 12.06, 2.51, 1.91, 8.62, repro,
2000-09-08,1.24, 3.99, 19.61, 2.66, 1.91, 8.78, repro,
2000-09-09,2.00, 3.13, 19.74, 2.62, 1.85, 8.60, repro,
2000-09-10,2.63, 2.42, 11.58, 2.60, 1.91, 8.78, repro,
2000-09-11,3.34, 2.93, 6.28, 2.58, 1.90, 8.69, repro,
2000-09-12,2.32, 2.42, 5.58, 2.60, 1.85, 8.52, repro,
2000-09-13,1.56, 2.07, 3.44, 2.68, 1.90, 8.75, repro,
2000-09-14,-0.23, 1.02, 2.58, 2.78, 1.96, 9.15, repro,
2000-09-15,-3.44, 1.35, 13.50, 2.58, 1.90, 8.67, repro,
2000-09-16,2.22, 4.36, 12.25, 2.44, 1.81, 8.30, repro,
2000-09-17,2.58, 3.47, 6.65, 2.64, 1.96, 8.92, repro,
2000-09-18,2.06, 2.46, 8.13, 2.50, 1.85, 8.61, repro,
2000-09-19,2.87, 5.61, 1.14, 2.60, 1.90, 8.84, repro,
2000-09-20,1.83, 4.04, 4.49, 2.52, 1.84, 8.44, repro,
2000-09-21,4.16, 2.94, 3.49, 2.71, 1.99, 9.28, repro,
2000-09-22,3.73, 3.06, 3.74, 2.94, 2.27, 10.20, repro,
2000-09-23,3.03, 3.72, 11.11, 2.57, 1.89, 8.66, repro,
2000-09-24,3.73, 5.21, 3.51, 2.73, 1.92, 8.91, repro,
2000-09-25,3.31, 3.82, 9.74, 2.61, 1.87, 8.70, repro,
2000-09-26,3.02, 4.06, 9.26, 2.48, 1.80, 8.38, repro,
2000-09-27,2.29, 3.33, 11.27, 2.62, 1.88, 8.90, repro,
2000-09-28,3.26, 4.01, 16.66, 2.46, 1.83, 8.45, repro,
2000-09-29,2.96, 4.06, 8.68, 2.56, 1.87, 8.77, repro,
2000-09-30,2.03, 2.50, 16.68, 2.50, 1.83, 8.68, repro,
2000-10-01,1.99, 4.29, 24.35, 2.49, 1.82, 8.37, repro,
2000-10-02,3.47, 4.03, 18.17, 2.52, 1.89, 8.56, repro,
2000-10-03,2.61, 4.98, 3.02, 2.46, 1.81, 8.30, repro,
2000-10-04,2.10, 4.46, 11.53, 2.53, 1.86, 8.72, repro,
2000-10-05,2.50, 4.28, 20.80, 2.67, 2.01, 9.30, repro,
2000-10-06,2.88, 4.87, 14.31, 2.42, 1.78, 8.21, repro,
2000-10-07,3.18, 4.51, 14.35, 2.40, 1.73, 8.04, repro,
2000-10-08,3.57, 3.17, 12.61, 2.41, 1.76, 8.15, repro,
2000-10-09,1.93, 4.87, 17.25, 2.46, 1.79, 8.39, repro,
2000-10-10,2.99, 5.94, 18.62, 2.53, 1.80, 8.60, repro,
2000-10-11,3.23, 5.13, 12.49, 2.45, 1.77, 8.22, repro,
2000-10-12,4.19, 5.97, 8.69, 2.49, 1.79, 8.34, repro,
2000-10-13,1.13, 6.22, 9.10, 2.52, 1.84, 8.56, repro,
2000-10-14,1.80, 4.47, 20.41, 2.63, 1.89, 8.98, repro,
2000-10-15,3.18, 6.50, 18.24, 2.66, 1.85, 8.76, repro,
2000-10-16,2.06, 7.15, 13.69, 2.46, 1.77, 8.30, repro,
2000-10-17,3.19, 6.40, 15.63, 2.63, 1.89, 8.86, repro,
2000-10-18,2.73, 5.31, -1.98, 2.55, 1.81, 8.58, repro,
2000-10-19,4.68, 4.42, 12.66, 2.64, 1.89, 8.92, repro,
2000-10-20,3.51, 5.00, 10.06, 2.58, 1.82, 8.58, repro,
2000-10-21,0.50, 8.65, 24.68, 2.54, 1.78, 8.40, repro,
2000-10-22,4.17, 5.76, 16.83, 2.53, 1.77, 8.31, repro,
2000-10-23,2.23, 6.30, 15.87, 2.58, 1.80, 8.56, repro,
2000-10-24,4.30, 5.41, 3.86, 2.47, 1.78, 8.32, repro,
2000-10-25,4.03, 5.63, 13.63, 2.44, 1.77, 8.22, repro,
2000-10-26,3.94, 6.20, 14.57, 2.54, 1.79, 8.29, repro,
2000-10-27,3.42, 8.65, 12.27, 3.19, 2.42, 11.43, repro,
2000-10-28,3.86, 6.12, 18.46, 2.58, 1.81, 8.49, repro,
2000-10-29,1.79, 6.30, 16.32, 2.67, 1.86, 8.90, repro,
2000-10-30,4.09, 7.05, 12.51, 2.51, 1.81, 8.41, repro,
2000-10-31,3.67, 8.07, 6.40, 2.51, 1.80, 8.39, repro,
2000-11-01,3.23, 7.79, 3.15, 2.55, 1.81, 8.47, repro,
2000-11-02,2.96, 7.37, 21.25, 2.46, 1.79, 8.36, repro,
2000-11-03,2.39, 6.90, 13.30, 2.58, 1.89, 8.65, repro,
2000-11-04,3.08, 5.64, 19.24, 2.55, 1.81, 8.55, repro,
2000-11-05,2.50, 6.92, 21.17, 2.52, 1.82, 8.44, repro,
2000-11-06,2.37, 8.26, 5.93, 2.63, 1.83, 8.84, repro,
2000-11-07,4.02, 7.45, 14.71, 2.59, 1.88, 8.68, repro,
2000-11-08,4.72, 9.32, 6.36, 2.64, 1.92, 8.82, repro,
2000-11-09,2.25, 7.20, 8.37, 2.83, 1.85, 8.87, repro,
2000-11-10,3.71, 6.67, 10.74, 2.96, 1.97, 9.59, repro,
2000-11-11,4.20, 7.15, 5.58, 2.67, 1.83, 8.85, repro,
2000-11-12,3.92, 7.76, 11.52, 2.55, 1.79, 8.43, repro,
2000-11-13,4.23, 6.94, 16.25, 2.52, 1.84, 8.40, repro,
2000-11-14,2.28, 7.58, 18.83, 2.66, 1.98, 8.84, repro,
2000-11-15,6.02, 8.71, 7.94, 2.70, 1.99, 9.08, repro,
2000-11-16,4.25, 8.26, 8.96, 2.72, 1.89, 8.78, repro,
2000-11-17,6.06, 7.78, 8.03, 2.43, 1.73, 8.12, repro,
2000-11-18,5.59, 7.93, 3.93, 2.55, 1.86, 8.53, repro,
2000-11-19,3.93, 6.98, 14.29, 2.70, 1.96, 9.07, repro,
2000-11-20,4.37, 7.99, 12.67, 2.66, 1.84, 8.65, repro,
2000-11-21,3.17, 7.02, 17.00, 2.66, 1.89, 8.72, repro,
2000-11-22,5.47, 7.38, 5.06, 2.73, 1.91, 8.94, repro,
2000-11-23,4.09, 9.43, 8.00, 2.58, 1.83, 8.47, repro,
2000-11-24,5.85, 6.71, 13.17, 2.51, 1.80, 8.48, repro,
2000-11-25,3.16, 7.14, 9.88, 2.81, 2.05, 9.38, repro,
2000-11-26,3.88, 6.98, 14.72, 2.63, 1.91, 8.96, repro,
2000-11-27,3.66, 8.29, 12.45, 2.72, 1.94, 8.92, repro,
2000-11-28,5.10, 6.94, 0.28, 3.72, 2.98, 13.34, repro,
2000-12-02,5.47, 7.64, -0.67, 2.64, 1.97, 9.34, repro,
2000-12-03,5.27, 6.85, 2.14, 2.81, 2.03, 9.61, repro,
2000-12-04,4.35, 7.14, 2.09, 2.96, 2.11, 9.85, repro,
2000-12-05,5.64, 6.25, -3.51, 2.82, 2.06, 9.69, repro,
2000-12-06,4.37, 7.83, 4.07, 2.68, 1.88, 8.83, repro,
2000-12-07,3.10, 8.16, 2.10, 2.67, 1.98, 9.07, repro,
2000-12-08,6.82, 8.39, 6.50, 2.97, 2.16, 10.26, repro,
2000-12-09,5.18, 7.72, 5.84, 2.74, 1.98, 9.34, repro,
2000-12-10,6.02, 7.92, 2.46, 2.98, 2.18, 10.55, repro,
2000-12-11,6.50, 8.79, 4.33, 2.49, 1.80, 8.63, repro,
2000-12-12,5.22, 8.80, 7.77, 2.58, 1.82, 8.56, repro,
2000-12-13,6.48, 8.55, 4.83, 2.48, 1.71, 8.21, repro,
2000-12-14,7.80, 8.56, 6.80, 2.44, 1.75, 8.29, repro,
2000-12-15,4.69, 6.54, 0.87, 2.48, 1.80, 8.60, repro,
2000-12-16,5.12, 7.01, -7.07, 2.47, 1.81, 8.53, repro,
2000-12-17,4.58, 8.62, 2.94, 2.56, 1.80, 8.40, repro,
2000-12-18,4.87, 8.78, -5.55, 2.54, 1.82, 8.61, repro,
2000-12-19,5.08, 8.27, -1.95, 2.68, 1.88, 9.23, repro,
2000-12-20,4.94, 8.33, 4.30, 2.48, 1.77, 8.43, repro,
2000-12-21,3.69, 6.26, 10.81, 2.52, 1.79, 8.50, repro,
2000-12-22,4.08, 6.81, 7.60, 2.49, 1.75, 8.30, repro,
2000-12-23,3.76, 7.37, 2.03, 2.51, 1.75, 8.34, repro,
2000-12-24,5.76, 8.31, -3.71, 2.43, 1.72, 8.11, repro,
2000-12-25,4.63, 8.45, -1.05, 2.43, 1.71, 8.12, repro,
2000-12-26,4.65, 7.13, 3.43, 2.49, 1.80, 8.40, repro,
2000-12-27,3.33, 7.18, -4.61, 2.54, 1.72, 8.27, repro,
2000-12-28,5.36, 8.82, -4.59, 2.48, 1.74, 8.17, repro,
2000-12-29,6.46, 8.66, -3.14, 2.43, 1.71, 8.11, repro,
2000-12-30,5.72, 8.97, -7.00, 2.55, 1.82, 8.72, repro,
2000-12-31,6.47, 8.23, 1.43, 2.81, 1.97, 9.36, repro,
2001-01-01,3.34, 7.30, 0.31, 2.73, 1.87, 9.22, repro,
2001-01-02,3.81, 7.34, 3.55, 2.83, 1.94, 9.39, repro,
2001-01-03,4.13, 9.46, 1.06, 2.54, 1.85, 8.66, repro,
2001-01-04,4.52, 9.27, -1.42, 2.50, 1.76, 8.34, repro,
2001-01-05,3.68, 6.22, 10.34, 2.56, 1.80, 8.54, repro,
2001-01-06,4.37, 8.59, 2.14, 2.65, 1.86, 8.73, repro,
2001-01-07,3.26, 6.95, 6.95, 2.56, 1.78, 8.50, repro,
2001-01-08,6.14, 8.06, 5.55, 2.71, 1.87, 9.00, repro,
2001-01-09,5.65, 7.38, -3.25, 2.49, 1.74, 8.26, repro,
2001-01-10,5.10, 8.31, 2.43, 2.54, 1.77, 8.46, repro,
2001-01-11,4.65, 8.42, 1.58, 2.60, 1.81, 8.60, repro,
2001-01-12,5.06, 7.27, 3.15, 2.55, 1.75, 8.47, repro,
2001-01-13,4.43, 8.13, 7.26, 2.56, 1.78, 8.49, repro,
2001-01-14,4.51, 6.85, 6.94, 2.73, 1.90, 9.03, repro,
2001-01-15,4.17, 7.39, -4.80, 2.90, 2.02, 9.40, repro,
2001-01-16,5.23, 6.58, -7.14, 2.68, 1.89, 8.82, repro,
2001-01-17,4.42, 8.58, -6.23, 2.63, 1.83, 8.86, repro,
2001-01-18,3.09, 7.86, 1.16, 2.61, 1.81, 8.70, repro,
2001-01-19,2.42, 7.88, 4.83, 2.50, 1.80, 8.42, repro,
2001-01-20,3.46, 6.65, 5.19, 2.40, 1.70, 7.99, repro,
2001-01-21,5.00, 7.68, 0.91, 2.53, 1.79, 8.38, repro,
2001-01-22,4.22, 6.95, -0.94, 2.52, 1.74, 8.28, repro,
2001-01-23,5.72, 8.67, -6.05, 2.47, 1.82, 8.57, repro,
2001-01-24,5.14, 6.33, 4.43, 2.78, 1.94, 9.09, repro,
2001-01-25,4.18, 7.23, 4.00, 2.57, 1.88, 8.78, repro,
2001-01-26,4.60, 6.91, -5.52, 2.90, 1.98, 9.43, repro,
2001-01-27,6.82, 8.07, 4.15, 2.51, 1.77, 8.35, repro,
2001-01-28,7.16, 8.58, -4.11, 2.59, 1.87, 8.93, repro,
2001-01-29,3.19, 7.23, 8.56, 2.47, 1.74, 8.23, repro,
2001-01-30,3.97, 9.04, 1.19, 2.42, 1.72, 8.08, repro,
2001-01-31,3.70, 8.38, -5.64, 2.52, 1.84, 8.55, repro,
2001-02-01,3.77, 7.02, -2.24, 2.46, 1.75, 8.23, repro,
2001-02-02,5.56, 8.31, -10.51, 2.41, 1.74, 8.08, repro,
2001-02-03,4.50, 7.34, 1.42, 2.43, 1.75, 8.14, repro,
2001-02-04,4.11, 7.77, 2.07, 2.47, 1.79, 8.37, repro,
2001-02-05,4.62, 8.55, -3.17, 2.44, 1.75, 8.26, repro,
2001-02-06,5.17, 7.08, -13.05, 2.44, 1.75, 8.24, repro,
2001-02-07,4.99, 9.13, -9.91, 2.44, 1.75, 8.28, repro,
2001-02-08,4.36, 8.66, -0.51, 2.58, 1.89, 8.64, repro,
2001-02-09,3.61, 7.11, 6.34, 2.49, 1.80, 8.43, repro,
2001-02-10,5.46, 7.33, 5.43, 2.41, 1.73, 8.16, repro,
2001-02-11,6.48, 6.93, 2.62, 2.47, 1.82, 8.41, repro,
2001-02-12,5.77, 8.03, -5.12, 2.58, 1.86, 8.61, repro,
2001-02-13,5.67, 8.08, -1.30, 2.43, 1.75, 8.20, repro,
2001-02-14,6.24, 8.28, 5.21, 2.54, 1.82, 8.54, repro,
2001-02-15,4.38, 6.70, 0.35, 2.42, 1.73, 8.22, repro,
2001-02-16,3.63, 7.52, -6.96, 2.60, 1.91, 8.81, repro,
2001-02-17,4.41, 8.68, -3.87, 2.60, 1.87, 8.63, repro,
2001-02-18,2.24, 7.93, -1.51, 2.49, 1.82, 8.45, repro,
2001-02-19,4.74, 6.62, -0.28, 2.65, 1.86, 8.53, repro,
2001-02-20,3.29, 6.43, 0.33, 2.60, 1.87, 8.52, repro,
2001-02-21,3.85, 6.75, -1.85, 2.57, 1.85, 8.62, repro,
2001-02-22,4.04, 6.83, -8.73, 2.47, 1.78, 8.44, repro,
2001-02-23,5.19, 8.24, -0.60, 2.48, 1.84, 8.52, repro,
2001-02-24,6.32, 8.60, -3.91, 2.63, 2.03, 9.11, repro,
2001-02-25,5.75, 8.18, -11.15, 2.56, 1.87, 8.63, repro,
2001-02-26,5.01, 7.66, -2.00, 2.63, 2.10, 9.42, repro,
2001-02-27,4.22, 7.52, -7.61, 2.51, 1.82, 8.67, repro,
2001-02-28,5.32, 7.40, 14.43, 2.51, 1.83, 8.68, repro,
2001-03-01,2.50, 10.31, 2.69, 2.77, 2.05, 9.25, repro,
2001-03-02,3.98, 9.86, -2.29, 2.71, 2.07, 9.36, repro,
2001-03-03,4.93, 8.84, -0.26, 2.57, 1.90, 8.89, repro,
2001-03-04,2.74, 8.94, -0.94, 2.62, 1.84, 8.62, repro,
2001-03-05,3.74, 7.46, -7.69, 2.60, 2.02, 9.22, repro,
2001-03-06,2.66, 6.06, -8.87, 2.49, 1.84, 8.64, repro,
2001-03-07,1.63, 6.66, -5.46, 2.43, 1.75, 8.24, repro,
2001-03-08,4.22, 9.27, -5.88, 2.58, 1.83, 8.70, repro,
2001-03-09,2.22, 7.05, -5.13, 2.64, 1.89, 8.98, repro,
2001-03-10,1.14, 8.10, -3.09, 2.60, 1.87, 8.76, repro,
2001-03-11,3.16, 8.66, 0.05, 2.59, 1.87, 8.69, repro,
2001-03-12,1.95, 9.23, 1.06, 2.58, 1.90, 8.78, repro,
2001-03-13,2.34, 7.33, 1.39, 2.57, 1.94, 8.91, repro,
2001-03-14,3.53, 7.88, -0.33, 2.43, 1.80, 8.48, repro,
2001-03-15,2.90, 9.11, -2.31, 2.45, 1.93, 8.95, repro,
2001-03-16,0.93, 8.53, 3.74, 2.46, 1.86, 8.74, repro,
2001-03-17,2.77, 9.11, -7.21, 2.45, 1.80, 8.52, repro,
2001-03-18,3.15, 9.13, -15.75, 2.40, 1.76, 8.16, repro,
2001-03-19,1.04, 6.65, -8.80, 2.42, 1.76, 8.34, repro,
2001-03-20,3.23, 9.13, -11.37, 2.54, 1.85, 8.93, repro,
2001-03-21,2.87, 7.80, -5.41, 2.43, 1.81, 8.43, repro,
2001-03-22,2.62, 8.22, -8.21, 2.40, 1.80, 8.41, repro,
2001-03-23,2.73, 6.58, -4.78, 2.41, 1.72, 8.37, repro,
2001-03-24,2.29, 6.27, 2.53, 2.42, 1.75, 8.33, repro,
2001-03-25,4.64, 9.01, -11.06, 2.46, 1.81, 8.50, repro,
2001-03-26,3.42, 9.22, -4.41, 2.49, 1.81, 8.54, repro,
2001-03-27,1.43, 9.39, 2.32, 2.55, 1.77, 8.62, repro,
2001-03-28,2.24, 10.18, -5.79, 2.59, 1.84, 9.07, repro,
2001-03-29,4.02, 10.46, -8.00, 2.46, 1.76, 8.40, repro,
2001-03-30,3.84, 8.94, -7.93, 2.43, 1.76, 8.33, repro,
2001-03-31,2.33, 9.19, -3.48, 2.93, 2.04, 10.02, repro,
2001-04-01,2.56, 8.94, 4.73, 2.40, 1.71, 8.19, repro,
2001-04-02,2.42, 8.09, 6.10, 2.40, 1.72, 8.25, repro,
2001-04-03,2.01, 8.39, -1.20, 2.47, 1.83, 8.64, repro,
2001-04-04,3.27, 8.20, -3.43, 2.47, 1.80, 8.49, repro,
2001-04-05,1.40, 6.17, -1.45, 2.49, 1.82, 8.66, repro,
2001-04-06,1.34, 8.97, 3.48, 2.43, 1.76, 8.40, repro,
2001-04-07,2.13, 7.98, 10.72, 2.51, 1.83, 8.91, repro,
2001-04-08,2.09, 9.87, 8.17, 2.46, 1.82, 8.66, repro,
2001-04-09,3.33, 9.19, 0.99, 2.49, 1.81, 8.67, repro,
2001-04-10,2.97, 8.07, 4.20, 2.54, 1.80, 8.76, repro,
2001-04-11,2.87, 9.01, 3.05, 2.59, 1.87, 9.12, repro,
2001-04-12,2.69, 7.57, -1.21, 2.46, 1.80, 8.65, repro,
2001-04-13,4.76, 9.71, -6.80, 2.42, 1.79, 8.56, repro,
2001-04-14,2.17, 9.03, -0.89, 2.44, 1.84, 8.69, repro,
2001-04-15,1.99, 8.61, -1.11, 2.50, 1.88, 8.98, repro,
2001-04-16,2.43, 8.26, -2.23, 2.46, 1.85, 8.75, repro,
2001-04-17,1.62, 10.47, -1.59, 2.48, 1.78, 8.41, repro,
2001-04-18,1.86, 8.90, -2.96, 2.61, 1.84, 8.84, repro,
2001-04-19,1.35, 6.46, 4.55, 2.38, 1.73, 8.26, repro,
2001-04-20,1.33, 4.86, 8.11, 2.38, 1.75, 8.23, repro,
2001-04-21,2.19, 5.69, 0.79, 2.37, 1.73, 8.17, repro,
2001-04-22,2.38, 7.38, -1.74, 2.55, 1.87, 8.83, repro,
2001-04-23,2.15, 7.93, 3.15, 2.52, 1.80, 8.67, repro,
2001-04-24,-0.20, 6.71, -0.56, 2.54, 1.84, 8.87, repro,
2001-04-25,-0.57, 2.81, 4.11, 2.45, 1.83, 8.68, repro,
2001-04-26,0.92, 2.72, 2.71, 2.40, 1.74, 8.28, repro,
2001-04-27,0.95, 3.48, 7.80, 2.42, 1.78, 8.49, repro,
2001-04-28,-2.07, 4.51, 11.14, 2.41, 1.78, 8.41, repro,
2001-04-29,-1.24, 8.28, 7.20, 2.43, 1.74, 8.33, repro,
2001-04-30,0.32, 6.27, -0.49, 2.55, 1.91, 8.92, repro,
2001-05-01,-0.24, 5.33, 4.62, 2.38, 1.75, 8.20, repro,
2001-05-02,-0.36, 2.30, 4.89, 2.41, 1.74, 8.23, repro,
2001-05-03,-2.12, 2.60, 3.58, 2.41, 1.74, 8.30, repro,
2001-05-04,-0.74, 2.98, 5.37, 2.57, 1.82, 8.85, repro,
2001-05-12,0.34, -2.10, 17.74, 3.92, 3.21, 14.45, repro,
2001-05-13,0.69, 0.28, 8.38, 2.44, 1.85, 8.54, repro,
2001-05-14,0.89, 1.08, 1.19, 2.39, 1.80, 8.34, repro,
2001-05-15,0.47, 3.16, 14.36, 2.42, 1.83, 8.54, repro,
2001-05-16,1.29, 4.05, 2.07, 2.44, 1.83, 8.59, repro,
2001-05-17,-0.04, 2.76, 4.19, 2.47, 1.90, 8.86, repro,
2001-05-18,0.44, 1.83, 7.44, 2.36, 1.73, 8.16, repro,
2001-05-19,0.57, 1.55, 6.56, 2.35, 1.78, 8.35, repro,
2001-05-20,0.18, 1.58, 12.88, 2.32, 1.75, 8.22, repro,
2001-05-21,-0.34, -0.93, 6.54, 2.37, 1.80, 8.45, repro,
2001-05-22,-2.82, -4.20, 14.51, 2.39, 1.82, 8.60, repro,
2001-05-23,-1.55, -1.69, 10.36, 2.36, 1.75, 8.26, repro,
2001-05-24,-0.75, 1.18, 5.43, 2.38, 1.78, 8.39, repro,
2001-05-25,0.37, 2.29, 4.25, 2.37, 1.77, 8.36, repro,
2001-05-26,1.03, 0.65, 9.57, 2.39, 1.78, 8.35, repro,
2001-05-27,1.55, 2.20, 10.14, 2.37, 1.76, 8.35, repro,
2001-05-28,-0.35, 1.56, 9.00, 2.40, 1.79, 8.42, repro,
2001-05-29,0.22, 1.78, 9.98, 2.38, 1.79, 8.43, repro,
2001-05-30,-0.19, 0.50, 11.52, 2.39, 1.80, 8.39, repro,
2001-05-31,-0.50, -1.57, 4.98, 2.37, 1.78, 8.41, repro,
2001-06-01,-0.93, -0.66, 14.42, 2.37, 1.79, 8.39, repro,
2001-06-02,-0.11, 3.00, 9.87, 2.40, 1.81, 8.45, repro,
2001-06-03,1.44, 2.42, 17.54, 2.38, 1.78, 8.38, repro,
2001-06-04,-0.11, 1.82, 8.83, 2.49, 1.85, 8.85, repro,
2001-06-05,0.36, 2.37, 8.47, 2.41, 1.77, 8.38, repro,
2001-06-06,-0.20, 2.47, 4.06, 2.36, 1.80, 8.44, repro,
2001-06-07,-1.74, 0.42, 8.00, 2.41, 1.81, 8.45, repro,
2001-06-08,-2.04, -0.91, 8.94, 2.43, 1.78, 8.43, repro,
2001-06-09,-4.00, 0.35, 8.30, 3.18, 2.20, 10.46, repro,
2001-06-10,1.23, -0.26, 0.39, 8.42, 6.35, 32.28, repro,
2001-06-11,1.04, 3.56, 7.53, 2.37, 1.76, 8.21, repro,
2001-06-12,0.71, 3.02, 7.47, 2.42, 1.79, 8.40, repro,
2001-06-13,-0.89, 2.28, 7.95, 2.40, 1.79, 8.29, repro,